Location: Huntsville
(41.2590°N, 111.7678°W)
Time: 06:48:47
(UTC+00:00)

Vanguard 3 - Pass Details

Date: 21 June 2021
Orbit: 508 x 3261 km, 33.4° (Epoch: 29 July)

Event Time Altitude Azimuth Distance (km) Brightness Sun altitude
Rises 17:18:17 0° 259° (W) 2,740 9.6 57.4°
Reaches altitude 10° 17:20:26 10° 247° (WSW) 1,982 9.0 57.8°
Maximum altitude 17:24:18 29° 186° (S) 1,387 8.9 58.5°
Drops below altitude 10° 17:29:55 10° 128° (SE) 2,935 10.7 59.4°
Sets 17:33:50 0° 119° (ESE) 4,367 11.3 60.1°
